User: anonymous   Login
Location: Cypress Hills Dark-Sky Preserve - CHICO
(49.6176°N, 110.2634°W)
Time: 18:08:59
(UTC-06:00)
Language:

SPOT 5 - Orbit

View from above orbital plane
View from above orbital plane
View from above satellite
View from above satellite

Ground track
Ground track

The orbit data is extracted from the following two-line orbital elements,

1 27421U 02021A   17147.88351069 +.00000026 +00000-0 +17226-4 0  9991
2 27421 098.4073 211.1550 0136028 031.1753 329.7409 14.51861484782726
Epoch (UTC): 27 May 2017 21:12:15
Eccentricity: 0.0136028
inclination: 98.4073°
perigee height: 623 km
apogee height: 816 km
right ascension of ascending node: 211.1550°
argument of perigee: 31.1753°
revolutions per day: 14.51861484
mean anomaly at epoch: 329.7409°
orbit number at epoch: 78272

The dashed part of the orbit path shows where the satellite is in the earth's shadow,  

DLR